Time,TemperatureF,DewpointF,PressureIn,WindDirection,WindDirectionDegrees,WindSpeedMPH,WindSpeedGustMPH,Humidity,HourlyPrecipIn,Conditions,Clouds,dailyrainin,SoftwareType,DateUTC
2013-09-19 00:01:00,63.1,43.7,29.70,NW,326,0.0,0.0,49,0.00,,---,0.00,VWS V14.01,2013-09-19 07:01:00,
2013-09-19 00:06:00,62.9,44.0,29.70,NW,326,0.0,0.0,50,0.00,,---,0.00,VWS V14.01,2013-09-19 07:06:00,
2013-09-19 00:11:00,62.7,44.3,29.70,NW,325,0.0,0.0,51,0.00,,---,0.00,VWS V14.01,2013-09-19 07:11:00,
2013-09-19 00:16:00,62.6,44.2,29.70,NW,325,0.0,0.0,51,0.00,,---,0.00,VWS V14.01,2013-09-19 07:16:00,
2013-09-19 00:21:00,62.6,44.8,29.70,NW,324,0.0,0.0,52,0.00,,---,0.00,VWS V14.01,2013-09-19 07:21:00,
2013-09-19 00:26:00,62.6,44.8,29.70,NW,325,0.0,0.0,52,0.00,,---,0.00,VWS V14.01,2013-09-19 07:26:00,
2013-09-19 00:31:00,62.6,44.8,29.70,East,90,0.0,0.0,52,0.00,,---,0.00,VWS V14.01,2013-09-19 07:31:00,
2013-09-19 00:36:00,62.6,44.8,29.70,ENE,77,0.0,0.0,52,0.00,,---,0.00,VWS V14.01,2013-09-19 07:36:00,
2013-09-19 00:41:00,62.6,44.2,29.70,ENE,78,0.0,0.0,51,0.00,,---,0.00,VWS V14.01,2013-09-19 07:41:00,
2013-09-19 00:46:00,62.5,44.2,29.70,ENE,77,0.0,0.0,51,0.00,,---,0.00,VWS V14.01,2013-09-19 07:46:00,
2013-09-19 00:51:00,62.4,44.0,29.70,ENE,76,0.0,0.0,51,0.00,,---,0.00,VWS V14.01,2013-09-19 07:51:00,
2013-09-19 00:56:00,62.3,44.0,29.70,ENE,57,0.0,0.0,51,0.00,,---,0.00,VWS V14.01,2013-09-19 07:56:00,
2013-09-19 01:01:00,62.1,44.3,29.70,ENE,57,0.0,0.0,52,0.00,,---,0.00,VWS V14.01,2013-09-19 08:01:00,
2013-09-19 01:06:00,62.0,44.2,29.70,ENE,65,0.0,0.0,52,0.00,,---,0.00,VWS V14.01,2013-09-19 08:06:00,
2013-09-19 01:11:00,61.8,44.5,29.70,ENE,66,0.0,0.0,53,0.00,,---,0.00,VWS V14.01,2013-09-19 08:11:00,
2013-09-19 01:16:00,61.8,44.5,29.70,ENE,65,0.0,0.0,53,0.00,,---,0.00,VWS V14.01,2013-09-19 08:16:00,
2013-09-19 01:22:00,61.6,44.3,29.70,ENE,65,0.0,0.0,53,0.00,,---,0.00,VWS V14.01,2013-09-19 08:22:00,
2013-09-19 01:27:00,61.6,44.3,29.70,ENE,65,0.0,0.0,53,0.00,,---,0.00,VWS V14.01,2013-09-19 08:27:00,
2013-09-19 01:32:00,61.6,44.3,29.70,ENE,65,0.0,0.0,53,0.00,,---,0.00,VWS V14.01,2013-09-19 08:32:00,
2013-09-19 01:37:00,61.5,44.7,29.70,North,350,1.0,0.0,54,0.00,,---,0.00,VWS V14.01,2013-09-19 08:37:00,
2013-09-19 01:42:00,61.3,44.0,29.70,WNW,290,0.0,0.0,53,0.00,,---,0.00,VWS V14.01,2013-09-19 08:42:00,
2013-09-19 01:47:00,61.2,44.0,29.70,WNW,290,0.0,0.0,53,0.00,,---,0.00,VWS V14.01,2013-09-19 08:47:00,
2013-09-19 01:52:00,61.1,44.3,29.70,WNW,290,0.0,0.0,54,0.00,,---,0.00,VWS V14.01,2013-09-19 08:52:00,
2013-09-19 01:57:00,61.0,44.2,29.70,WNW,291,0.0,0.0,54,0.00,,---,0.00,VWS V14.01,2013-09-19 08:57:00,
2013-09-19 02:02:00,60.9,44.2,29.70,WNW,290,0.0,0.0,54,0.00,,---,0.00,VWS V14.01,2013-09-19 09:02:00,
2013-09-19 02:07:00,60.7,44.0,29.70,WNW,290,0.0,0.0,54,0.00,,---,0.00,VWS V14.01,2013-09-19 09:07:00,
2013-09-19 02:12:00,60.6,44.4,29.70,WNW,290,0.0,0.0,55,0.00,,---,0.00,VWS V14.01,2013-09-19 09:12:00,
2013-09-19 02:17:00,60.5,44.3,29.70,WNW,291,0.0,0.0,55,0.00,,---,0.00,VWS V14.01,2013-09-19 09:17:00,
2013-09-19 02:22:00,60.4,44.7,29.70,WNW,290,0.0,0.0,56,0.00,,---,0.00,VWS V14.01,2013-09-19 09:22:00,
2013-09-19 02:27:00,60.2,44.5,29.70,WNW,290,0.0,0.0,56,0.00,,---,0.00,VWS V14.01,2013-09-19 09:27:00,
2013-09-19 02:32:00,60.1,44.4,29.70,WNW,291,0.0,0.0,56,0.00,,---,0.00,VWS V14.01,2013-09-19 09:32:00,
2013-09-19 02:37:00,60.0,44.3,29.70,WNW,290,0.0,0.0,56,0.00,,---,0.00,VWS V14.01,2013-09-19 09:37:00,
2013-09-19 02:42:00,59.9,44.2,29.70,WNW,290,0.0,0.0,56,0.00,,---,0.00,VWS V14.01,2013-09-19 09:42:00,
2013-09-19 02:47:00,59.8,44.1,29.70,WNW,289,0.0,0.0,56,0.00,,---,0.00,VWS V14.01,2013-09-19 09:47:00,
2013-09-19 02:52:00,59.7,44.5,29.70,WNW,290,0.0,0.0,57,0.00,,---,0.00,VWS V14.01,2013-09-19 09:52:00,
2013-09-19 02:57:00,59.6,43.9,29.70,WNW,290,0.0,0.0,56,0.00,,---,0.00,VWS V14.01,2013-09-19 09:57:00,
2013-09-19 03:02:00,59.6,43.9,29.69,WNW,290,0.0,0.0,56,0.00,,---,0.00,VWS V14.01,2013-09-19 10:02:00,
2013-09-19 03:07:00,59.5,44.3,29.69,WNW,290,0.0,0.0,57,0.00,,---,0.00,VWS V14.01,2013-09-19 10:07:00,
2013-09-19 03:12:00,59.5,44.3,29.69,WNW,291,0.0,0.0,57,0.00,,---,0.00,VWS V14.01,2013-09-19 10:12:00,
2013-09-19 03:17:00,59.4,44.2,29.69,WNW,290,0.0,0.0,57,0.00,,---,0.00,VWS V14.01,2013-09-19 10:17:00,
2013-09-19 03:22:00,59.4,44.2,29.69,WNW,290,0.0,0.0,57,0.00,,---,0.00,VWS V14.01,2013-09-19 10:22:00,
2013-09-19 03:27:00,59.3,44.1,29.69,WNW,290,0.0,0.0,57,0.00,,---,0.00,VWS V14.01,2013-09-19 10:27:00,
2013-09-19 03:32:00,59.2,44.5,29.69,WNW,291,0.0,0.0,58,0.00,,---,0.00,VWS V14.01,2013-09-19 10:32:00,
2013-09-19 03:37:00,59.2,44.5,29.69,West,275,0.0,0.0,58,0.00,,---,0.00,VWS V14.01,2013-09-19 10:37:00,
2013-09-19 03:43:00,59.2,44.5,29.69,West,273,0.0,0.0,58,0.00,,---,0.00,VWS V14.01,2013-09-19 10:43:00,
2013-09-19 03:48:00,59.2,44.5,29.69,West,271,0.0,0.0,58,0.00,,---,0.00,VWS V14.01,2013-09-19 10:48:00,
2013-09-19 03:53:00,59.2,44.5,29.69,West,270,0.0,0.0,58,0.00,,---,0.00,VWS V14.01,2013-09-19 10:53:00,
2013-09-19 03:58:00,59.3,44.5,29.69,WSW,242,0.0,0.0,58,0.00,,---,0.00,VWS V14.01,2013-09-19 10:58:00,
2013-09-19 04:03:00,59.3,44.5,29.68,South,190,0.0,0.0,58,0.00,,---,0.00,VWS V14.01,2013-09-19 11:03:00,
2013-09-19 04:08:00,59.3,44.1,29.69,South,190,0.0,0.0,57,0.00,,---,0.00,VWS V14.01,2013-09-19 11:08:00,
2013-09-19 04:13:00,59.2,44.5,29.69,ESE,103,0.0,0.0,58,0.00,,---,0.00,VWS V14.01,2013-09-19 11:13:00,
2013-09-19 04:18:00,59.1,44.3,29.69,ENE,65,0.0,0.0,58,0.00,,---,0.00,VWS V14.01,2013-09-19 11:18:00,
2013-09-19 04:23:00,59.0,44.3,29.69,NW,311,0.0,0.0,58,0.00,,---,0.00,VWS V14.01,2013-09-19 11:23:00,
2013-09-19 04:28:00,58.9,44.2,29.69,NW,311,0.0,0.0,58,0.00,,---,0.00,VWS V14.01,2013-09-19 11:28:00,
2013-09-19 04:33:00,58.8,44.5,29.69,NW,310,0.0,0.0,59,0.00,,---,0.00,VWS V14.01,2013-09-19 11:33:00,
2013-09-19 04:38:00,58.8,44.5,29.69,SE,136,0.0,0.0,59,0.00,,---,0.00,VWS V14.01,2013-09-19 11:38:00,
2013-09-19 04:43:00,58.7,44.4,29.69,SE,135,0.0,0.0,59,0.00,,---,0.00,VWS V14.01,2013-09-19 11:43:00,
2013-09-19 04:48:00,58.7,44.4,29.69,SE,136,0.0,0.0,59,0.00,,---,0.00,VWS V14.01,2013-09-19 11:48:00,
2013-09-19 04:53:00,58.7,44.4,29.69,SE,140,0.0,0.0,59,0.00,,---,0.00,VWS V14.01,2013-09-19 11:53:00,
2013-09-19 04:58:00,58.7,44.4,29.69,SE,140,0.0,0.0,59,0.00,,---,0.00,VWS V14.01,2013-09-19 11:58:00,
2013-09-19 05:03:00,58.6,44.3,29.69,SE,141,0.0,0.0,59,0.00,,---,0.00,VWS V14.01,2013-09-19 12:03:00,
2013-09-19 05:08:00,58.6,44.3,29.69,WNW,290,0.0,0.0,59,0.00,,---,0.00,VWS V14.01,2013-09-19 12:08:00,
2013-09-19 05:13:00,58.5,44.2,29.70,WNW,290,0.0,0.0,59,0.00,,---,0.00,VWS V14.01,2013-09-19 12:13:00,
2013-09-19 05:18:00,58.5,44.2,29.70,WNW,286,0.0,0.0,59,0.00,,---,0.00,VWS V14.01,2013-09-19 12:18:00,
2013-09-19 05:23:00,58.4,44.1,29.70,WNW,287,0.0,0.0,59,0.00,,---,0.00,VWS V14.01,2013-09-19 12:23:00,
2013-09-19 05:28:00,58.4,44.1,29.70,WNW,287,0.0,0.0,59,0.00,,---,0.00,VWS V14.01,2013-09-19 12:28:00,
2013-09-19 05:33:00,58.3,44.5,29.70,WNW,287,0.0,0.0,60,0.00,,---,0.00,VWS V14.01,2013-09-19 12:33:00,
2013-09-19 05:38:00,58.2,44.4,29.70,WNW,287,0.0,0.0,60,0.00,,---,0.00,VWS V14.01,2013-09-19 12:38:00,
2013-09-19 05:43:00,58.1,44.3,29.70,WNW,287,0.0,0.0,60,0.00,,---,0.00,VWS V14.01,2013-09-19 12:43:00,
2013-09-19 05:48:00,58.0,43.8,29.70,WNW,288,0.0,0.0,59,0.00,,---,0.00,VWS V14.01,2013-09-19 12:48:00,
2013-09-19 05:53:00,58.0,44.2,29.70,WNW,288,0.0,0.0,60,0.00,,---,0.00,VWS V14.01,2013-09-19 12:53:00,
2013-09-19 05:58:00,58.0,43.8,29.70,WNW,288,0.0,0.0,59,0.00,,---,0.00,VWS V14.01,2013-09-19 12:58:00,
2013-09-19 06:03:00,58.1,45.2,29.70,WNW,288,0.0,0.0,62,0.00,,---,0.00,VWS V14.01,2013-09-19 13:03:00,
2013-09-19 06:08:00,58.1,44.3,29.70,WNW,287,0.0,0.0,60,0.00,,---,0.00,VWS V14.01,2013-09-19 13:08:00,
2013-09-19 06:13:00,58.0,45.1,29.70,WNW,288,0.0,0.0,62,0.00,,---,0.00,VWS V14.01,2013-09-19 13:13:00,
2013-09-19 06:18:00,58.0,44.6,29.70,WNW,286,0.0,0.0,61,0.00,,---,0.00,VWS V14.01,2013-09-19 13:18:00,
2013-09-19 06:23:00,58.0,44.2,29.70,WNW,286,0.0,0.0,60,0.00,,---,0.00,VWS V14.01,2013-09-19 13:23:00,
2013-09-19 06:28:00,58.1,43.4,29.70,WNW,286,0.0,0.0,58,0.00,,---,0.00,VWS V14.01,2013-09-19 13:28:00,
2013-09-19 06:33:00,58.0,42.9,29.71,WNW,292,0.0,0.0,57,0.00,,---,0.00,VWS V14.01,2013-09-19 13:33:00,
2013-09-19 06:39:00,58.0,42.9,29.71,West,277,1.0,0.0,57,0.00,,---,0.00,VWS V14.01,2013-09-19 13:39:00,
2013-09-19 06:44:00,58.1,43.4,29.71,West,277,0.0,0.0,58,0.00,,---,0.00,VWS V14.01,2013-09-19 13:44:00,
2013-09-19 06:49:00,58.2,44.0,29.71,ENE,66,0.0,0.0,59,0.00,,---,0.00,VWS V14.01,2013-09-19 13:49:00,
2013-09-19 06:54:00,58.2,43.5,29.71,West,259,0.0,0.0,58,0.00,,---,0.00,VWS V14.01,2013-09-19 13:54:00,
2013-09-19 06:59:00,58.1,43.4,29.71,West,259,0.0,0.0,58,0.00,,---,0.00,VWS V14.01,2013-09-19 13:59:00,
2013-09-19 07:04:00,58.2,43.5,29.72,West,259,0.0,0.0,58,0.00,,---,0.00,VWS V14.01,2013-09-19 14:04:00,
2013-09-19 07:09:00,58.1,43.4,29.72,West,260,0.0,0.0,58,0.00,,---,0.00,VWS V14.01,2013-09-19 14:09:00,
2013-09-19 07:14:00,58.0,42.9,29.72,West,259,0.0,0.0,57,0.00,,---,0.00,VWS V14.01,2013-09-19 14:14:00,
2013-09-19 07:19:00,58.0,43.3,29.72,West,259,0.0,0.0,58,0.00,,---,0.00,VWS V14.01,2013-09-19 14:19:00,
2013-09-19 07:24:00,58.0,42.9,29.72,West,259,0.0,0.0,57,0.00,,---,0.00,VWS V14.01,2013-09-19 14:24:00,
2013-09-19 07:29:00,58.0,42.9,29.72,West,259,0.0,0.0,57,0.00,,---,0.00,VWS V14.01,2013-09-19 14:29:00,
2013-09-19 07:34:00,58.0,43.3,29.72,West,259,0.0,0.0,58,0.00,,---,0.00,VWS V14.01,2013-09-19 14:34:00,
2013-09-19 07:39:00,58.2,43.5,29.72,West,259,0.0,0.0,58,0.00,,---,0.00,VWS V14.01,2013-09-19 14:39:00,
2013-09-19 07:44:00,58.3,43.6,29.72,WSW,252,0.0,0.0,58,0.00,,---,0.00,VWS V14.01,2013-09-19 14:44:00,
2013-09-19 07:49:00,58.5,44.2,29.72,WSW,253,0.0,0.0,59,0.00,,---,0.00,VWS V14.01,2013-09-19 14:49:00,
2013-09-19 07:54:00,58.5,43.3,29.72,SE,128,0.0,0.0,57,0.00,,---,0.00,VWS V14.01,2013-09-19 14:54:00,
2013-09-19 07:59:00,58.6,44.3,29.72,SE,128,0.0,0.0,59,0.00,,---,0.00,VWS V14.01,2013-09-19 14:59:00,
2013-09-19 08:04:00,58.7,43.5,29.73,SE,128,0.0,0.0,57,0.00,,---,0.00,VWS V14.01,2013-09-19 15:04:00,
2013-09-19 08:09:00,58.9,43.7,29.73,SE,128,0.0,0.0,57,0.00,,---,0.00,VWS V14.01,2013-09-19 15:09:00,
2013-09-19 08:14:00,59.0,43.8,29.73,SE,126,0.0,0.0,57,0.00,,---,0.00,VWS V14.01,2013-09-19 15:14:00,
2013-09-19 08:19:00,59.3,43.6,29.73,ESE,123,0.0,0.0,56,0.00,,---,0.00,VWS V14.01,2013-09-19 15:19:00,
2013-09-19 08:24:00,59.5,43.8,29.73,SE,124,0.0,0.0,56,0.00,,---,0.00,VWS V14.01,2013-09-19 15:24:00,
2013-09-19 08:29:00,59.7,43.5,29.73,ESE,120,0.0,0.0,55,0.00,,---,0.00,VWS V14.01,2013-09-19 15:29:00,
2013-09-19 08:34:00,60.1,43.4,29.73,ESE,121,0.0,0.0,54,0.00,,---,0.00,VWS V14.01,2013-09-19 15:34:00,
2013-09-19 08:39:00,60.5,42.8,29.73,East,98,0.0,0.0,52,0.00,,---,0.00,VWS V14.01,2013-09-19 15:39:00,
2013-09-19 08:44:00,60.8,44.1,29.73,East,98,2.0,0.0,54,0.00,,---,0.00,VWS V14.01,2013-09-19 15:44:00,
2013-09-19 08:49:00,61.2,44.4,29.73,East,98,0.0,0.0,54,0.00,,---,0.00,VWS V14.01,2013-09-19 15:49:00,
2013-09-19 08:54:00,61.4,44.1,29.73,East,96,0.0,0.0,53,0.00,,---,0.00,VWS V14.01,2013-09-19 15:54:00,
2013-09-19 08:59:00,61.8,43.0,29.73,East,94,2.0,0.0,50,0.00,,---,0.00,VWS V14.01,2013-09-19 15:59:00,
2013-09-19 09:04:00,62.5,43.1,29.73,East,94,0.0,0.0,49,0.00,,---,0.00,VWS V14.01,2013-09-19 16:04:00,
2013-09-19 09:10:00,62.9,45.5,29.73,East,94,0.0,0.0,53,0.00,,---,0.00,VWS V14.01,2013-09-19 16:10:00,
2013-09-19 09:15:00,63.2,44.3,29.73,East,94,0.0,0.0,50,0.00,,---,0.00,VWS V14.01,2013-09-19 16:15:00,
2013-09-19 09:20:00,63.5,43.5,29.73,East,93,0.0,0.0,48,0.00,,---,0.00,VWS V14.01,2013-09-19 16:20:00,
2013-09-19 09:25:00,64.0,43.9,29.73,East,94,0.0,0.0,48,0.00,,---,0.00,VWS V14.01,2013-09-19 16:25:00,
2013-09-19 09:30:00,64.7,44.6,29.73,East,94,0.0,0.0,48,0.00,,---,0.00,VWS V14.01,2013-09-19 16:30:00,
2013-09-19 09:35:00,65.6,46.5,29.73,NW,306,0.0,0.0,50,0.00,,---,0.00,VWS V14.01,2013-09-19 16:35:00,
2013-09-19 09:40:00,66.8,45.4,29.73,WSW,246,0.0,0.0,46,0.00,,---,0.00,VWS V14.01,2013-09-19 16:40:00,
2013-09-19 09:45:00,68.0,44.7,29.73,NW,321,1.0,0.0,43,0.00,,---,0.00,VWS V14.01,2013-09-19 16:45:00,
2013-09-19 09:50:00,68.9,44.9,29.73,NW,323,1.0,0.0,42,0.00,,---,0.00,VWS V14.01,2013-09-19 16:50:00,
2013-09-19 09:55:00,69.5,44.8,29.74,NW,325,0.0,0.0,41,0.00,,---,0.00,VWS V14.01,2013-09-19 16:55:00,
2013-09-19 10:00:00,70.3,44.2,29.74,North,349,0.0,0.0,39,0.00,,---,0.00,VWS V14.01,2013-09-19 17:00:00,
2013-09-19 10:05:00,70.9,45.4,29.74,North,355,2.0,0.0,40,0.00,,---,0.00,VWS V14.01,2013-09-19 17:05:00,
2013-09-19 10:10:00,71.6,47.3,29.74,NW,323,0.0,0.0,42,0.00,,---,0.00,VWS V14.01,2013-09-19 17:10:00,
2013-09-19 10:15:00,72.3,46.0,29.74,NE,36,0.0,0.0,39,0.00,,---,0.00,VWS V14.01,2013-09-19 17:15:00,
2013-09-19 10:20:00,72.9,45.8,29.74,NW,315,1.0,0.0,38,0.00,,---,0.00,VWS V14.01,2013-09-19 17:20:00,
2013-09-19 10:25:00,73.4,46.3,29.74,West,265,2.0,0.0,38,0.00,,---,0.00,VWS V14.01,2013-09-19 17:25:00,
2013-09-19 10:30:00,73.7,47.2,29.74,NE,53,1.0,0.0,39,0.00,,---,0.00,VWS V14.01,2013-09-19 17:30:00,
2013-09-19 10:35:00,74.4,45.7,29.74,North,5,0.0,0.0,36,0.00,,---,0.00,VWS V14.01,2013-09-19 17:35:00,
2013-09-19 10:40:00,74.9,46.2,29.74,NW,319,0.0,0.0,36,0.00,,---,0.00,VWS V14.01,2013-09-19 17:40:00,
2013-09-19 10:45:00,75.5,46.7,29.74,North,5,0.0,0.0,36,0.00,,---,0.00,VWS V14.01,2013-09-19 17:45:00,
2013-09-19 10:50:00,75.9,45.5,29.74,NE,47,1.0,0.0,34,0.00,,---,0.00,VWS V14.01,2013-09-19 17:50:00,
2013-09-19 10:55:00,76.3,46.7,29.74,West,274,1.0,0.0,35,0.00,,---,0.00,VWS V14.01,2013-09-19 17:55:00,
2013-09-19 11:01:00,76.8,47.8,29.73,WSW,246,1.0,0.0,36,0.00,,---,0.00,VWS V14.01,2013-09-19 18:01:00,
2013-09-19 11:06:00,77.3,45.2,29.73,East,98,1.0,0.0,32,0.00,,---,0.00,VWS V14.01,2013-09-19 18:06:00,
2013-09-19 11:11:00,77.7,46.3,29.74,NNW,346,1.0,0.0,33,0.00,,---,0.00,VWS V14.01,2013-09-19 18:11:00,
2013-09-19 11:16:00,78.2,46.0,29.74,East,87,2.0,0.0,32,0.00,,---,0.00,VWS V14.01,2013-09-19 18:16:00,
2013-09-19 11:21:00,78.1,45.9,29.73,East,98,1.0,0.0,32,0.00,,---,0.00,VWS V14.01,2013-09-19 18:21:00,
2013-09-19 11:26:00,78.4,47.0,29.73,NE,47,1.0,0.0,33,0.00,,---,0.00,VWS V14.01,2013-09-19 18:26:00,
2013-09-19 11:31:00,79.1,46.7,29.73,East,95,0.0,0.0,32,0.00,,---,0.00,VWS V14.01,2013-09-19 18:31:00,
2013-09-19 11:36:00,79.6,48.0,29.73,WNW,282,1.0,0.0,33,0.00,,---,0.00,VWS V14.01,2013-09-19 18:36:00,
2013-09-19 11:41:00,80.3,47.8,29.73,WNW,286,1.0,0.0,32,0.00,,---,0.00,VWS V14.01,2013-09-19 18:41:00,
2013-09-19 11:46:00,80.9,46.6,29.73,SW,223,0.0,0.0,30,0.00,,---,0.00,VWS V14.01,2013-09-19 18:46:00,
2013-09-19 11:51:00,81.6,46.3,29.73,WNW,300,2.0,0.0,29,0.00,,---,0.00,VWS V14.01,2013-09-19 18:51:00,
2013-09-19 11:56:00,82.3,45.0,29.73,West,265,1.0,0.0,27,0.00,,---,0.00,VWS V14.01,2013-09-19 18:56:00,
2013-09-19 12:01:00,82.5,47.1,29.73,NNW,332,0.0,0.0,29,0.00,,---,0.00,VWS V14.01,2013-09-19 19:01:00,
2013-09-19 12:06:00,82.9,45.5,29.73,NNW,336,1.0,0.0,27,0.00,,---,0.00,VWS V14.01,2013-09-19 19:06:00,
2013-09-19 12:11:00,83.3,43.8,29.73,WNW,303,1.0,0.0,25,0.00,,---,0.00,VWS V14.01,2013-09-19 19:11:00,
2013-09-19 12:16:00,83.6,45.1,29.72,WNW,284,1.0,0.0,26,0.00,,---,0.00,VWS V14.01,2013-09-19 19:16:00,
2013-09-19 12:21:00,83.7,44.2,29.72,West,270,0.0,0.0,25,0.00,,---,0.00,VWS V14.01,2013-09-19 19:21:00,
2013-09-19 12:26:00,84.1,45.5,29.72,NW,318,0.0,0.0,26,0.00,,---,0.00,VWS V14.01,2013-09-19 19:26:00,
2013-09-19 12:31:00,84.5,45.9,29.72,NNW,329,3.0,0.0,26,0.00,,---,0.00,VWS V14.01,2013-09-19 19:31:00,
2013-09-19 12:36:00,85.0,46.3,29.72,South,190,1.0,0.0,26,0.00,,---,0.00,VWS V14.01,2013-09-19 19:36:00,
2013-09-19 12:41:00,85.3,46.6,29.72,NE,44,3.0,0.0,26,0.00,,---,0.00,VWS V14.01,2013-09-19 19:41:00,
2013-09-19 12:46:00,85.5,44.6,29.72,ESE,105,0.0,0.0,24,0.00,,---,0.00,VWS V14.01,2013-09-19 19:46:00,
2013-09-19 12:51:00,85.4,43.4,29.72,NW,323,0.0,0.0,23,0.00,,---,0.00,VWS V14.01,2013-09-19 19:51:00,
2013-09-19 12:56:00,85.3,44.5,29.72,WNW,284,3.0,0.0,24,0.00,,---,0.00,VWS V14.01,2013-09-19 19:56:00,
2013-09-19 13:01:00,85.7,43.7,29.71,North,5,0.0,0.0,23,0.00,,---,0.00,VWS V14.01,2013-09-19 20:01:00,
2013-09-19 13:06:00,85.7,44.8,29.71,NNE,22,1.0,0.0,24,0.00,,---,0.00,VWS V14.01,2013-09-19 20:06:00,
2013-09-19 13:12:00,86.1,45.1,29.71,NNE,15,1.0,0.0,24,0.00,,---,0.00,VWS V14.01,2013-09-19 20:12:00,
2013-09-19 13:17:00,86.5,45.5,29.71,WNW,282,3.0,0.0,24,0.00,,---,0.00,VWS V14.01,2013-09-19 20:17:00,
2013-09-19 13:22:00,86.8,43.4,29.70,NNE,24,2.0,0.0,22,0.00,,---,0.00,VWS V14.01,2013-09-19 20:22:00,
2013-09-19 13:27:00,87.2,43.8,29.70,NW,310,1.0,0.0,22,0.00,,---,0.00,VWS V14.01,2013-09-19 20:27:00,
2013-09-19 13:32:00,87.6,42.9,29.70,NNW,340,1.0,0.0,21,0.00,,---,0.00,VWS V14.01,2013-09-19 20:32:00,
2013-09-19 13:37:00,88.1,44.5,29.70,South,169,1.0,0.0,22,0.00,,---,0.00,VWS V14.01,2013-09-19 20:37:00,
2013-09-19 13:42:00,88.6,42.4,29.70,West,263,0.0,0.0,20,0.00,,---,0.00,VWS V14.01,2013-09-19 20:42:00,
2013-09-19 13:47:00,89.1,41.5,29.69,NW,306,1.0,0.0,19,0.00,,---,0.00,VWS V14.01,2013-09-19 20:47:00,
2013-09-19 13:52:00,89.3,43.0,29.69,SSE,167,0.0,0.0,20,0.00,,---,0.00,VWS V14.01,2013-09-19 20:52:00,
2013-09-19 13:57:00,89.5,43.2,29.69,WNW,291,0.0,0.0,20,0.00,,---,0.00,VWS V14.01,2013-09-19 20:57:00,
2013-09-19 14:02:00,89.5,41.8,29.69,WNW,290,0.0,0.0,19,0.00,,---,0.00,VWS V14.01,2013-09-19 21:02:00,
2013-09-19 14:07:00,89.8,42.1,29.68,West,273,0.0,0.0,19,0.00,,---,0.00,VWS V14.01,2013-09-19 21:07:00,
2013-09-19 14:12:00,90.3,43.8,29.68,North,360,0.0,0.0,20,0.00,,---,0.00,VWS V14.01,2013-09-19 21:12:00,
2013-09-19 14:17:00,90.6,42.7,29.68,East,79,2.0,0.0,19,0.00,,---,0.00,VWS V14.01,2013-09-19 21:17:00,
2013-09-19 14:22:00,90.8,42.9,29.67,SE,137,0.0,0.0,19,0.00,,---,0.00,VWS V14.01,2013-09-19 21:22:00,
2013-09-19 14:27:00,91.3,47.2,29.67,NNE,31,0.0,0.0,22,0.00,,---,0.00,VWS V14.01,2013-09-19 21:27:00,
2013-09-19 14:32:00,91.5,42.1,29.67,North,9,0.0,0.0,18,0.00,,---,0.00,VWS V14.01,2013-09-19 21:32:00,
2013-09-19 14:37:00,91.5,43.5,29.67,North,355,4.0,0.0,19,0.00,,---,0.00,VWS V14.01,2013-09-19 21:37:00,
2013-09-19 14:42:00,91.4,42.0,29.67,NW,311,0.0,0.0,18,0.00,,---,0.00,VWS V14.01,2013-09-19 21:42:00,
2013-09-19 14:47:00,91.8,42.3,29.67,NNE,32,0.0,0.0,18,0.00,,---,0.00,VWS V14.01,2013-09-19 21:47:00,
2013-09-19 14:52:00,92.2,41.2,29.67,SSW,206,0.0,0.0,17,0.00,,---,0.00,VWS V14.01,2013-09-19 21:52:00,
2013-09-19 14:57:00,91.9,43.8,29.67,NE,52,0.0,0.0,19,0.00,,---,0.00,VWS V14.01,2013-09-19 21:57:00,
2013-09-19 15:03:00,91.9,42.4,29.67,WNW,296,0.0,0.0,18,0.00,,---,0.00,VWS V14.01,2013-09-19 22:03:00,
2013-09-19 15:08:00,91.9,43.8,29.66,South,176,0.0,0.0,19,0.00,,---,0.00,VWS V14.01,2013-09-19 22:08:00,
2013-09-19 15:13:00,92.4,45.5,29.66,NNW,333,0.0,0.0,20,0.00,,---,0.00,VWS V14.01,2013-09-19 22:13:00,
2013-09-19 15:18:00,92.8,44.5,29.66,NNE,27,0.0,0.0,19,0.00,,---,0.00,VWS V14.01,2013-09-19 22:18:00,
2013-09-19 15:23:00,92.9,43.2,29.66,NW,314,0.0,0.0,18,0.00,,---,0.00,VWS V14.01,2013-09-19 22:23:00,
2013-09-19 15:28:00,92.7,43.0,29.66,West,265,1.0,0.0,18,0.00,,---,0.00,VWS V14.01,2013-09-19 22:28:00,
2013-09-19 15:33:00,92.4,44.2,29.66,NNW,327,0.0,0.0,19,0.00,,---,0.00,VWS V14.01,2013-09-19 22:33:00,
2013-09-19 15:38:00,92.0,43.9,29.65,WNW,301,2.0,0.0,19,0.00,,---,0.00,VWS V14.01,2013-09-19 22:38:00,
2013-09-19 15:43:00,91.9,43.8,29.65,NNW,336,1.0,0.0,19,0.00,,---,0.00,VWS V14.01,2013-09-19 22:43:00,
2013-09-19 15:48:00,91.8,43.7,29.65,SW,236,1.0,0.0,19,0.00,,---,0.00,VWS V14.01,2013-09-19 22:48:00,
2013-09-19 15:53:00,91.3,43.3,29.65,NE,36,0.0,0.0,19,0.00,,---,0.00,VWS V14.01,2013-09-19 22:53:00,
2013-09-19 15:58:00,91.1,45.8,29.65,NNW,347,2.0,0.0,21,0.00,,---,0.00,VWS V14.01,2013-09-19 22:58:00,
2013-09-19 16:03:00,90.7,44.2,29.65,NNE,19,1.0,0.0,20,0.00,,---,0.00,VWS V14.01,2013-09-19 23:03:00,
2013-09-19 16:08:00,90.4,43.9,29.64,West,276,0.0,0.0,20,0.00,,---,0.00,VWS V14.01,2013-09-19 23:08:00,
2013-09-19 16:13:00,90.1,45.0,29.64,NNW,348,0.0,0.0,21,0.00,,---,0.00,VWS V14.01,2013-09-19 23:13:00,
2013-09-19 16:18:00,89.9,44.8,29.64,NNW,328,1.0,0.0,21,0.00,,---,0.00,VWS V14.01,2013-09-19 23:18:00,
2013-09-19 16:23:00,89.3,45.5,29.64,West,271,0.0,0.0,22,0.00,,---,0.00,VWS V14.01,2013-09-19 23:23:00,
2013-09-19 16:28:00,89.0,44.0,29.64,NE,45,0.0,0.0,21,0.00,,---,0.00,VWS V14.01,2013-09-19 23:28:00,
2013-09-19 16:33:00,88.8,43.9,29.64,NNE,26,0.0,0.0,21,0.00,,---,0.00,VWS V14.01,2013-09-19 23:33:00,
2013-09-19 16:39:00,88.8,43.9,29.64,NNW,343,0.0,0.0,21,0.00,,---,0.00,VWS V14.01,2013-09-19 23:39:00,
2013-09-19 16:44:00,88.8,43.9,29.63,North,360,0.0,0.0,21,0.00,,---,0.00,VWS V14.01,2013-09-19 23:44:00,
2013-09-19 16:49:00,88.9,44.0,29.63,NNE,32,0.0,0.0,21,0.00,,---,0.00,VWS V14.01,2013-09-19 23:49:00,
2013-09-19 16:54:00,88.9,42.7,29.63,NE,46,0.0,0.0,20,0.00,,---,0.00,VWS V14.01,2013-09-19 23:54:00,
2013-09-19 16:59:00,88.8,43.9,29.63,ENE,71,1.0,0.0,21,0.00,,---,0.00,VWS V14.01,2013-09-19 23:59:00,
2013-09-19 17:04:00,88.7,43.8,29.63,NNE,13,0.0,0.0,21,0.00,,---,0.00,VWS V14.01,2013-09-20 00:04:00,
2013-09-19 17:09:00,88.5,43.6,29.63,West,275,0.0,0.0,21,0.00,,---,0.00,VWS V14.01,2013-09-20 00:09:00,
2013-09-19 17:14:00,88.3,44.7,29.63,WNW,286,0.0,0.0,22,0.00,,---,0.00,VWS V14.01,2013-09-20 00:14:00,
2013-09-19 17:19:00,88.2,42.1,29.62,WNW,288,0.0,0.0,20,0.00,,---,0.00,VWS V14.01,2013-09-20 00:19:00,
2013-09-19 17:24:00,88.1,43.3,29.62,WNW,288,0.0,0.0,21,0.00,,---,0.00,VWS V14.01,2013-09-20 00:24:00,
2013-09-19 17:29:00,87.9,43.1,29.62,WNW,294,0.0,0.0,21,0.00,,---,0.00,VWS V14.01,2013-09-20 00:29:00,
2013-09-19 17:34:00,87.7,46.5,29.62,WNW,293,0.0,0.0,24,0.00,,---,0.00,VWS V14.01,2013-09-20 00:34:00,
2013-09-19 17:39:00,87.5,42.8,29.62,East,89,0.0,0.0,21,0.00,,---,0.00,VWS V14.01,2013-09-20 00:39:00,
2013-09-19 17:45:00,87.2,43.8,29.62,East,88,0.0,0.0,22,0.00,,---,0.00,VWS V14.01,2013-09-20 00:45:00,
2013-09-19 17:50:00,87.0,44.8,29.62,East,88,0.0,0.0,23,0.00,,---,0.00,VWS V14.01,2013-09-20 00:50:00,
2013-09-19 17:55:00,86.9,45.8,29.62,East,86,0.0,0.0,24,0.00,,---,0.00,VWS V14.01,2013-09-20 00:55:00,
2013-09-19 18:00:00,86.8,42.2,29.62,East,87,0.0,0.0,21,0.00,,---,0.00,VWS V14.01,2013-09-20 01:00:00,
2013-09-19 18:05:00,86.7,43.3,29.62,East,87,0.0,0.0,22,0.00,,---,0.00,VWS V14.01,2013-09-20 01:05:00,
2013-09-19 18:10:00,86.5,44.3,29.62,East,86,0.0,0.0,23,0.00,,---,0.00,VWS V14.01,2013-09-20 01:10:00,
2013-09-19 18:15:00,86.3,45.3,29.62,NW,312,0.0,0.0,24,0.00,,---,0.00,VWS V14.01,2013-09-20 01:15:00,
2013-09-19 18:20:00,86.1,44.0,29.62,NW,316,0.0,0.0,23,0.00,,---,0.00,VWS V14.01,2013-09-20 01:20:00,
2013-09-19 18:25:00,85.9,43.8,29.62,NE,50,0.0,0.0,23,0.00,,---,0.00,VWS V14.01,2013-09-20 01:25:00,
2013-09-19 18:30:00,85.7,43.7,29.62,NE,50,0.0,0.0,23,0.00,,---,0.00,VWS V14.01,2013-09-20 01:30:00,
2013-09-19 18:35:00,85.4,45.6,29.62,NE,51,0.0,0.0,25,0.00,,---,0.00,VWS V14.01,2013-09-20 01:35:00,
2013-09-19 18:40:00,85.1,45.4,29.62,NE,51,0.0,0.0,25,0.00,,---,0.00,VWS V14.01,2013-09-20 01:40:00,
2013-09-19 18:45:00,84.7,46.1,29.62,NE,51,0.0,0.0,26,0.00,,---,0.00,VWS V14.01,2013-09-20 01:45:00,
2013-09-19 18:50:00,84.3,46.7,29.61,NE,51,0.0,0.0,27,0.00,,---,0.00,VWS V14.01,2013-09-20 01:50:00,
2013-09-19 18:55:00,83.7,47.2,29.62,NE,51,0.0,0.0,28,0.00,,---,0.00,VWS V14.01,2013-09-20 01:55:00,
2013-09-19 19:00:00,82.9,47.4,29.61,NE,51,0.0,0.0,29,0.00,,---,0.00,VWS V14.01,2013-09-20 02:00:00,
2013-09-19 19:05:00,82.1,47.6,29.62,NE,51,0.0,0.0,30,0.00,,---,0.00,VWS V14.01,2013-09-20 02:05:00,
2013-09-19 19:10:00,81.3,47.8,29.61,NE,51,0.0,0.0,31,0.00,,---,0.00,VWS V14.01,2013-09-20 02:10:00,
2013-09-19 19:15:00,80.5,47.1,29.61,NE,51,0.0,0.0,31,0.00,,---,0.00,VWS V14.01,2013-09-20 02:15:00,
2013-09-19 19:20:00,79.9,47.4,29.61,NE,50,0.0,0.0,32,0.00,,---,0.00,VWS V14.01,2013-09-20 02:20:00,
2013-09-19 19:25:00,79.2,46.8,29.61,NE,50,0.0,0.0,32,0.00,,---,0.00,VWS V14.01,2013-09-20 02:25:00,
2013-09-19 19:30:00,78.6,46.3,29.61,NE,50,0.0,0.0,32,0.00,,---,0.00,VWS V14.01,2013-09-20 02:30:00,
2013-09-19 19:35:00,78.2,46.8,29.61,NE,50,0.0,0.0,33,0.00,,---,0.00,VWS V14.01,2013-09-20 02:35:00,
2013-09-19 19:40:00,77.9,46.5,29.61,NE,51,0.0,0.0,33,0.00,,---,0.00,VWS V14.01,2013-09-20 02:40:00,
2013-09-19 19:45:00,77.7,46.3,29.61,NE,50,0.0,0.0,33,0.00,,---,0.00,VWS V14.01,2013-09-20 02:45:00,
2013-09-19 19:50:00,77.3,46.0,29.61,NE,51,0.0,0.0,33,0.00,,---,0.00,VWS V14.01,2013-09-20 02:50:00,
2013-09-19 19:55:00,76.9,45.6,29.61,NE,50,0.0,0.0,33,0.00,,---,0.00,VWS V14.01,2013-09-20 02:55:00,
2013-09-19 20:00:00,76.6,44.6,29.62,NE,51,0.0,0.0,32,0.00,,---,0.00,VWS V14.01,2013-09-20 03:00:00,
2013-09-19 20:05:00,76.3,45.1,29.61,NE,51,0.0,0.0,33,0.00,,---,0.00,VWS V14.01,2013-09-20 03:05:00,
2013-09-19 20:10:00,76.2,44.2,29.61,NE,51,0.0,0.0,32,0.00,,---,0.00,VWS V14.01,2013-09-20 03:10:00,
2013-09-19 20:15:00,76.2,44.2,29.62,NE,51,0.0,0.0,32,0.00,,---,0.00,VWS V14.01,2013-09-20 03:15:00,
2013-09-19 20:20:00,76.1,44.9,29.62,NE,50,0.0,0.0,33,0.00,,---,0.00,VWS V14.01,2013-09-20 03:20:00,
2013-09-19 20:25:00,75.8,44.7,29.62,NE,50,0.0,0.0,33,0.00,,---,0.00,VWS V14.01,2013-09-20 03:25:00,
2013-09-19 20:30:00,75.6,44.5,29.62,NE,50,0.0,0.0,33,0.00,,---,0.00,VWS V14.01,2013-09-20 03:30:00,
2013-09-19 20:36:00,75.3,44.2,29.62,NE,50,0.0,0.0,33,0.00,,---,0.00,VWS V14.01,2013-09-20 03:36:00,
2013-09-19 20:41:00,75.0,44.0,29.62,NE,49,0.0,0.0,33,0.00,,---,0.00,VWS V14.01,2013-09-20 03:41:00,
2013-09-19 20:46:00,74.6,43.6,29.62,NE,51,0.0,0.0,33,0.00,,---,0.00,VWS V14.01,2013-09-20 03:46:00,
2013-09-19 20:51:00,74.3,43.4,29.62,NE,50,0.0,0.0,33,0.00,,---,0.00,VWS V14.01,2013-09-20 03:51:00,
2013-09-19 20:56:00,74.0,43.9,29.62,NE,50,0.0,0.0,34,0.00,,---,0.00,VWS V14.01,2013-09-20 03:56:00,
2013-09-19 21:01:00,73.7,44.4,29.62,NE,49,0.0,0.0,35,0.00,,---,0.00,VWS V14.01,2013-09-20 04:01:00,
2013-09-19 21:02:00,73.6,43.5,29.62,NE,50,0.0,0.0,34,0.00,,---,0.00,VWS V14.01,2013-09-20 04:02:00,
2013-09-19 21:05:00,73.3,44.0,29.62,NE,50,0.0,0.0,35,0.00,,---,0.00,VWS V14.01,2013-09-20 04:05:00,
2013-09-19 21:11:00,73.0,43.8,29.62,NE,50,0.0,0.0,35,0.00,,---,0.00,VWS V14.01,2013-09-20 04:11:00,
2013-09-19 21:16:00,72.7,44.2,29.62,NE,50,0.0,0.0,36,0.00,,---,0.00,VWS V14.01,2013-09-20 04:16:00,
2013-09-19 21:21:00,72.4,44.0,29.62,NE,51,0.0,0.0,36,0.00,,---,0.00,VWS V14.01,2013-09-20 04:21:00,
2013-09-19 21:26:00,72.3,44.6,29.62,NE,50,0.0,0.0,37,0.00,,---,0.00,VWS V14.01,2013-09-20 04:26:00,
2013-09-19 21:31:00,72.1,44.4,29.62,NE,50,0.0,0.0,37,0.00,,---,0.00,VWS V14.01,2013-09-20 04:31:00,
2013-09-19 21:36:00,71.9,44.2,29.63,NE,50,0.0,0.0,37,0.00,,---,0.00,VWS V14.01,2013-09-20 04:36:00,
2013-09-19 21:41:00,71.7,44.1,29.63,NE,51,0.0,0.0,37,0.00,,---,0.00,VWS V14.01,2013-09-20 04:41:00,
2013-09-19 21:46:00,71.5,43.9,29.63,NE,51,0.0,0.0,37,0.00,,---,0.00,VWS V14.01,2013-09-20 04:46:00,
2013-09-19 21:51:00,71.3,43.7,29.63,NE,50,0.0,0.0,37,0.00,,---,0.00,VWS V14.01,2013-09-20 04:51:00,
2013-09-19 21:56:00,71.1,44.2,29.63,NE,50,0.0,0.0,38,0.00,,---,0.00,VWS V14.01,2013-09-20 04:56:00,
2013-09-19 22:01:00,70.9,44.0,29.63,NE,50,0.0,0.0,38,0.00,,---,0.00,VWS V14.01,2013-09-20 05:01:00,
2013-09-19 22:06:00,70.8,44.0,29.63,NE,50,0.0,0.0,38,0.00,,---,0.00,VWS V14.01,2013-09-20 05:06:00,
2013-09-19 22:11:00,70.7,43.9,29.63,NE,51,0.0,0.0,38,0.00,,---,0.00,VWS V14.01,2013-09-20 05:11:00,
2013-09-19 22:16:00,70.6,44.5,29.63,NE,49,0.0,0.0,39,0.00,,---,0.00,VWS V14.01,2013-09-20 05:16:00,
2013-09-19 22:21:00,70.5,44.4,29.63,NE,50,0.0,0.0,39,0.00,,---,0.00,VWS V14.01,2013-09-20 05:21:00,
2013-09-19 22:26:00,70.4,44.3,29.63,NE,49,0.0,0.0,39,0.00,,---,0.00,VWS V14.01,2013-09-20 05:26:00,
2013-09-19 22:31:00,70.3,44.2,29.63,NE,49,0.0,0.0,39,0.00,,---,0.00,VWS V14.01,2013-09-20 05:31:00,
2013-09-19 22:36:00,70.1,44.0,29.63,NE,50,0.0,0.0,39,0.00,,---,0.00,VWS V14.01,2013-09-20 05:36:00,
2013-09-19 22:41:00,69.9,44.5,29.63,NE,51,0.0,0.0,40,0.00,,---,0.00,VWS V14.01,2013-09-20 05:41:00,
2013-09-19 22:46:00,69.8,44.4,29.63,NE,51,0.0,0.0,40,0.00,,---,0.00,VWS V14.01,2013-09-20 05:46:00,
2013-09-19 22:51:00,69.6,43.6,29.63,NE,50,0.0,0.0,39,0.00,,---,0.00,VWS V14.01,2013-09-20 05:51:00,
2013-09-19 22:56:00,69.4,44.1,29.63,NE,50,0.0,0.0,40,0.00,,---,0.00,VWS V14.01,2013-09-20 05:56:00,
2013-09-19 23:01:00,69.4,44.1,29.63,NE,51,0.0,0.0,40,0.00,,---,0.00,VWS V14.01,2013-09-20 06:01:00,
2013-09-19 23:06:00,69.3,44.0,29.63,North,355,0.0,0.0,40,0.00,,---,0.00,VWS V14.01,2013-09-20 06:06:00,
2013-09-19 23:11:00,69.0,43.7,29.64,WNW,290,0.0,0.0,40,0.00,,---,0.00,VWS V14.01,2013-09-20 06:11:00,
2013-09-19 23:17:00,68.9,43.6,29.64,WNW,291,0.0,0.0,40,0.00,,---,0.00,VWS V14.01,2013-09-20 06:17:00,
2013-09-19 23:22:00,68.8,43.5,29.64,East,89,0.0,0.0,40,0.00,,---,0.00,VWS V14.01,2013-09-20 06:22:00,
2013-09-19 23:27:00,68.6,44.0,29.64,East,88,0.0,0.0,41,0.00,,---,0.00,VWS V14.01,2013-09-20 06:27:00,
2013-09-19 23:32:00,68.4,43.8,29.64,East,87,0.0,0.0,41,0.00,,---,0.00,VWS V14.01,2013-09-20 06:32:00,
2013-09-19 23:37:00,68.2,44.3,29.64,East,86,0.0,0.0,42,0.00,,---,0.00,VWS V14.01,2013-09-20 06:37:00,
2013-09-19 23:42:00,68.1,43.5,29.64,East,86,0.0,0.0,41,0.00,,---,0.00,VWS V14.01,2013-09-20 06:42:00,
2013-09-19 23:47:00,67.9,43.4,29.64,East,86,0.0,0.0,41,0.00,,---,0.00,VWS V14.01,2013-09-20 06:47:00,
2013-09-19 23:52:00,67.7,43.8,29.64,East,86,0.0,0.0,42,0.00,,---,0.00,VWS V14.01,2013-09-20 06:52:00,
2013-09-19 23:57:00,67.6,43.7,29.64,East,86,0.0,0.0,42,0.00,,---,0.00,VWS V14.01,2013-09-20 06:57:00,